Theta_e
319 318 319 320 321 321 320 320 319 318 318 318 317 316 315 314 315 318 318 318 318 317 316 317 317 317 317 318 319 320 320 320 320 320 320 320 321 322 321 324 327 328 331 336 339 339 336 334 331 322 318 317 317 321 322 321 327 329 326 325 324 322 320 317 315 315 316 317 318 322 326 327 327 327 327 327 327 326 324 324 323 320 318 317 316 316
319 318 319 322 322 320 320 319 319 318 319 318 317 316 315 314 315 317 319 318 318 316 316 317 317 317 318 318 319 320 320 320 321 321 322 321 322 325 324 326 330 331 334 337 339 338 336 335 334 328 320 317 316 320 323 324 327 329 327 324 321 318 315 314 315 315 316 318 319 323 327 327 327 326 325 327 326 322 317 314 313 313 316 322 321 316
319 320 321 322 321 320 320 319 319 319 320 319 319 317 315 315 316 317 318 318 318 316 316 317 317 316 318 318 319 320 320 320 321 322 323 325 326 328 327 327 332 335 335 336 337 337 337 336 336 334 325 318 317 317 321 326 327 326 324 319 317 315 312 316 318 316 319 323 324 326 328 328 328 327 328 327 321 315 310 307 309 306 310 322 325 323
317 320 322 322 321 320 320 319 320 320 319 320 320 318 316 317 318 316 316 318 318 317 317 317 316 317 318 319 319 320 321 321 323 325 325 326 327 328 328 328 329 331 331 333 335 337 338 336 337 337 330 321 317 316 321 328 328 325 321 316 314 312 314 321 322 319 325 327 325 328 329 328 329 325 322 318 311 309 308 306 308 306 308 316 319 322
317 321 323 322 321 321 320 320 320 319 320 321 321 319 318 319 318 317 317 318 318 317 317 317 315 316 317 318 318 321 324 325 325 326 326 326 327 327 328 328 328 328 328 330 332 335 337 337 337 338 334 328 321 317 321 326 328 327 321 315 313 312 317 323 323 323 327 326 324 326 326 326 326 318 315 315 311 310 310 309 309 309 312 314 313 319
319 322 322 322 322 321 320 320 320 319 320 321 321 320 319 319 319 319 320 319 316 316 319 318 313 314 319 321 322 324 325 325 325 326 326 326 327 328 328 328 328 328 328 329 329 330 334 336 337 337 336 334 327 322 323 324 326 327 323 316 312 314 318 319 320 323 323 320 320 320 318 318 317 312 315 321 318 315 314 313 312 311 312 313 313 315
320 322 322 321 321 321 320 320 321 320 318 319 321 320 319 320 319 319 319 318 317 318 320 320 314 315 322 324 324 325 325 324 325 325 325 326 327 327 327 327 327 326 328 329 328 328 331 332 335 336 336 336 331 329 329 326 325 327 326 320 312 314 319 317 319 324 321 317 316 313 313 314 312 315 322 324 321 320 317 312 312 313 311 312 313 312
321 321 321 320 320 320 319 318 319 318 316 317 320 320 319 319 319 319 319 318 318 319 319 320 316 317 324 325 323 324 325 324 324 324 325 325 325 325 326 326 326 325 326 328 328 329 330 330 332 335 336 336 334 333 333 331 328 328 327 321 313 315 320 318 318 325 322 316 314 312 317 320 320 325 327 322 318 317 314 312 313 313 313 313 313 313
321 320 319 319 318 318 317 316 316 316 316 316 318 319 319 319 319 319 319 318 319 319 318 318 316 319 324 325 323 324 325 325 324 323 324 324 324 325 325 325 325 325 326 327 327 328 328 329 330 331 333 334 332 333 334 334 331 331 330 324 317 317 320 319 319 323 320 316 314 313 322 328 327 330 327 318 314 313 312 313 313 313 314 314 314 314
320 319 320 319 318 317 316 316 316 316 316 317 317 319 318 318 319 318 318 318 318 319 318 317 317 320 323 325 324 325 325 325 324 323 323 324 323 324 324 324 324 325 326 327 327 328 327 329 329 330 332 332 330 329 332 333 332 332 332 328 324 323 324 322 319 319 317 318 320 318 325 330 328 329 325 314 311 313 313 313 313 314 314 314 314 314
321 320 321 319 318 317 316 317 317 317 317 317 318 318 318 319 321 320 319 318 318 320 319 317 318 320 323 325 325 324 324 324 324 323 323 323 323 323 323 324 324 324 327 327 327 328 328 329 330 330 332 332 330 327 327 330 332 331 331 330 329 328 330 328 321 318 319 323 327 325 328 330 328 327 321 313 311 313 313 313 313 313 313 314 314 314
320 320 320 319 318 318 317 317 318 318 318 318 318 318 318 321 322 321 320 320 321 320 319 318 320 322 324 326 324 323 323 322 323 322 322 323 323 324 323 323 323 324 325 325 326 327 328 329 330 331 332 332 330 329 328 330 332 331 331 331 330 329 330 330 325 320 322 326 329 330 330 330 329 326 317 312 313 313 313 313 313 313 313 314 314 314
319 319 319 319 318 317 318 318 317 318 319 319 319 318 319 321 322 321 320 321 321 320 319 318 320 325 326 325 324 323 322 321 322 322 322 323 323 323 323 323 323 323 324 324 324 326 327 328 329 330 333 332 330 330 330 330 330 329 329 329 329 329 330 331 328 324 323 326 329 330 330 330 330 325 317 314 313 312 313 313 313 313 313 314 314 314
317 318 318 317 317 317 318 317 316 318 318 319 319 318 320 321 321 322 323 323 322 321 321 319 320 326 326 324 323 323 322 321 323 322 322 323 322 323 323 323 323 323 323 324 323 324 325 327 328 329 330 329 329 330 330 329 329 328 327 326 326 327 328 329 329 328 326 327 328 328 327 329 330 325 320 319 317 313 314 313 313 313 313 313 314 313
315 317 317 316 317 317 317 317 317 318 318 319 319 319 320 320 321 324 324 323 323 322 322 320 321 325 326 324 322 323 322 321 322 321 322 322 322 322 322 322 323 323 323 324 323 323 324 326 327 327 328 328 329 330 329 329 329 328 328 327 325 325 325 325 326 328 329 328 328 328 327 328 329 326 322 323 323 319 316 314 312 313 313 314 313 313
315 316 317 317 317 317 317 317 318 318 318 319 319 318 318 318 319 321 323 323 322 321 321 322 324 324 324 322 322 323 322 321 321 321 321 321 322 322 322 322 322 322 323 323 323 323 323 325 326 326 327 328 329 329 329 329 329 328 328 328 327 326 327 326 326 328 329 328 328 328 328 327 328 326 323 324 325 323 320 316 313 314 315 314 314 313
316 317 319 318 318 318 317 318 319 318 319 319 319 318 318 319 319 318 319 320 320 321 321 324 325 324 323 323 322 321 320 320 320 320 321 321 321 321 322 322 322 322 323 323 323 323 323 324 325 326 325 326 327 328 329 329 329 329 328 328 327 327 327 327 328 329 329 327 325 326 327 327 327 326 323 323 325 324 322 318 316 317 318 315 314 313
317 317 319 318 317 317 317 318 318 319 319 318 318 319 319 320 320 318 319 319 319 322 322 323 325 324 324 324 323 320 319 319 319 319 320 321 321 321 321 321 322 322 323 323 322 323 323 323 324 325 325 324 326 328 329 329 329 329 328 329 328 328 328 328 327 328 329 327 323 323 325 326 326 325 323 323 324 323 322 320 319 320 319 315 313 313
317 317 319 317 316 317 317 318 318 318 318 319 320 320 319 322 322 320 320 320 319 322 322 323 324 324 323 323 322 320 319 319 319 319 319 320 321 321 321 321 321 322 322 322 322 322 323 323 323 324 324 324 324 327 328 329 328 328 328 328 329 328 328 328 327 327 327 327 325 324 325 325 325 324 323 323 324 323 322 321 321 321 319 316 313 313
318 318 318 317 316 318 317 317 316 317 318 317 319 319 319 321 322 321 321 320 319 320 323 324 324 324 322 321 320 319 319 318 319 319 319 320 321 321 320 321 321 321 321 322 322 322 322 323 323 323 323 323 324 325 327 327 327 327 327 327 327 327 327 327 327 327 327 327 325 324 326 326 324 322 321 323 323 323 322 321 321 321 318 316 313 313
318 319 319 319 317 318 318 317 316 317 317 317 317 318 318 319 321 321 321 318 318 320 322 323 324 324 321 320 320 319 318 318 319 319 320 320 321 320 320 320 320 321 321 321 321 322 322 322 322 322 322 323 323 324 324 325 326 326 326 326 326 325 325 326 327 327 327 328 326 324 325 326 324 321 321 322 323 323 322 322 322 322 318 315 314 313
318 319 320 320 317 316 317 318 317 317 317 317 317 317 317 319 320 323 323 320 318 320 320 320 323 323 321 319 319 318 318 319 319 320 320 321 320 320 320 320 320 320 320 320 320 321 321 321 321 321 321 322 322 323 323 323 324 325 325 326 326 325 325 325 325 326 326 327 327 326 326 324 323 322 322 322 322 322 322 322 322 322 319 316 315 314
319 319 319 319 317 316 318 319 318 319 318 317 318 317 317 318 320 321 323 322 320 320 319 319 323 323 320 319 319 318 318 319 319 319 320 320 320 320 319 319 319 319 320 320 320 320 320 320 320 321 321 321 321 322 322 322 323 324 324 325 325 325 324 324 324 325 325 326 326 326 325 323 322 322 321 320 321 322 321 322 322 322 321 318 316 315
320 319 318 318 318 317 318 319 319 319 318 317 317 317 317 318 319 321 322 322 321 321 320 319 323 322 320 318 319 318 318 318 318 319 319 319 319 319 319 319 319 319 319 319 319 320 320 320 320 320 320 320 320 320 321 321 322 323 323 323 324 323 323 323 323 323 323 324 324 324 324 322 321 320 319 318 320 321 319 320 321 321 321 320 318 318
321 321 318 318 319 318 318 319 320 320 318 316 316 317 317 317 318 320 320 320 321 321 320 320 323 322 319 318 318 317 317 318 318 318 318 318 318 318 318 318 318 318 318 318 319 319 319 319 319 319 319 320 320 320 320 320 321 322 322 322 322 322 322 323 322 322 322 322 322 323 323 321 320 320 318 317 319 320 319 319 320 320 321 320 320 320
320 320 318 317 318 319 319 319 320 319 317 316 317 317 317 317 318 319 319 319 320 320 321 321 321 321 318 317 317 316 316 317 317 318 317 317 317 317 317 317 317 317 317 317 318 318 318 318 318 319 318 319 319 320 320 320 320 320 321 321 321 321 321 322 322 322 321 321 321 321 321 321 320 320 319 316 317 319 320 319 319 320 320 320 320 320
319 320 319 317 317 317 317 317 318 317 316 316 316 316 316 317 318 318 318 319 319 319 320 320 319 319 318 317 315 315 315 316 317 318 317 317 317 317 317 316 316 316 316 316 317 317 317 317 317 318 318 318 319 318 318 319 319 319 320 321 321 321 320 320 320 321 320 320 320 320 319 319 319 319 318 317 317 318 319 319 320 319 319 319 319 319
319 320 320 318 316 316 316 316 317 316 316 316 315 315 316 316 317 318 318 318 318 318 319 319 317 317 317 316 315 315 315 315 316 317 316 317 317 316 316 316 316 316 316 316 316 316 316 316 317 317 317 318 318 318 318 318 318 319 319 320 320 321 320 319 318 319 320 320 319 319 318 317 318 318 317 317 316 315 316 318 319 319 319 319 319 319
317 319 319 318 316 316 316 316 316 316 316 316 316 315 316 316 317 317 317 317 317 317 318 317 316 317 317 315 314 315 314 315 315 315 315 315 315 316 316 316 316 316 315 316 316 315 316 316 316 317 317 317 317 317 318 318 317 318 319 319 319 320 320 320 318 318 319 320 321 320 319 319 319 319 317 317 316 317 316 316 316 318 319 319 318 318
316 317 318 317 315 315 316 316 316 316 316 316 316 316 315 315 315 316 316 317 316 316 317 316 316 316 316 315 314 314 314 314 314 314 315 315 315 316 316 316 316 315 315 315 315 315 315 316 316 316 317 317 317 317 317 317 317 317 318 318 318 319 319 320 320 319 318 319 320 320 320 320 320 320 319 318 318 318 319 317 315 317 318 317 315 317
315 316 317 317 315 316 318 318 317 317 316 316 316 315 315 315 315 316 316 316 316 316 316 316 316 316 315 315 314 314 314 314 314 314 315 315 316 316 316 315 314 315 314 314 314 315 315 315 315 316 317 317 317 317 317 317 318 317 317 317 317 318 318 319 320 321 320 320 320 320 320 320 321 320 320 320 319 319 318 317 315 315 315 313 311 314
316 316 316 317 315 316 319 319 317 316 316 316 316 316 316 316 316 316 316 315 315 316 316 316 317 316 315 315 314 314 314 314 313 314 314 315 316 315 315 314 314 314 314 314 314 314 314 314 315 315 316 316 316 317 317 317 317 317 317 317 317 317 317 318 319 320 320 320 321 321 320 320 320 320 320 321 321 320 319 318 315 313 313 311 311 314
318 316 315 316 314 314 318 319 317 316 316 317 319 318 317 316 316 315 315 316 316 316 316 316 316 316 316 316 315 314 313 313 313 314 315 315 315 315 314 313 313 313 313 314 314 314 314 314 314 315 315 316 316 316 317 317 317 317 317 317 317 316 316 317 317 318 318 318 319 320 321 320 320 320 320 321 320 320 320 319 318 315 313 312 313 316
318 316 315 316 314 313 316 318 315 315 317 319 320 318 317 316 316 315 315 315 315 316 315 315 316 316 316 315 314 313 313 313 313 314 315 315 314 314 313 312 312 313 313 313 314 314 313 314 314 314 314 314 315 315 315 316 316 316 317 317 316 316 316 316 316 316 316 316 317 318 319 320 320 320 320 320 320 319 319 319 318 317 316 315 314 315
315 316 315 315 314 313 314 315 314 316 320 320 319 317 316 316 316 315 316 316 315 315 315 315 315 316 316 315 314 313 313 312 313 315 315 314 314 314 313 312 312 312 313 313 313 313 313 313 313 313 313 313 314 314 313 314 315 315 315 316 316 316 316 317 316 315 316 316 316 316 317 318 319 318 319 320 319 319 319 317 316 317 319 319 317 316
314 315 315 315 314 314 313 313 314 317 321 321 318 317 316 315 316 316 316 315 315 315 315 315 315 316 315 314 313 312 312 312 313 314 314 314 314 313 313 312 311 311 312 312 313 313 313 313 313 313 313 313 313 313 313 313 313 314 314 314 315 316 316 316 316 315 315 315 315 316 316 316 316 316 317 318 318 317 318 318 318 319 320 320 319 317
314 315 316 315 314 313 313 313 313 315 319 320 319 318 316 315 314 315 314 314 314 315 316 315 314 315 314 313 312 312 312 312 313 314 314 314 313 313 312 312 311 311 311 311 312 312 312 313 313 312 312 312 312 312 312 312 312 313 313 313 313 314 314 315 316 316 315 315 315 315 316 316 316 316 317 318 318 317 318 318 319 319 319 318 318 318
316 315 315 315 314 313 313 314 314 313 316 319 320 318 316 315 314 314 314 314 314 315 315 314 314 314 313 313 313 313 312 312 313 314 314 314 313 312 312 312 311 311 311 311 312 312 312 312 312 311 311 311 311 311 311 311 311 311 312 312 313 313 313 314 315 315 315 315 315 315 315 316 316 316 317 318 318 317 317 317 317 317 317 317 317 317
317 316 315 315 315 314 314 315 315 313 315 319 320 317 315 315 314 314 315 315 315 316 315 314 314 314 313 313 314 313 313 312 313 313 313 314 313 312 313 313 312 312 312 312 312 312 311 311 311 310 310 310 310 310 309 309 309 310 311 311 312 312 312 313 313 313 314 314 315 315 315 315 315 315 315 316 317 317 317 316 317 317 317 317 317 317
319 318 317 316 316 315 314 314 314 315 317 319 319 317 315 314 314 314 316 315 315 316 315 314 314 314 313 313 313 313 312 312 313 313 313 314 313 313 313 313 312 313 312 312 312 311 311 310 310 309 309 309 309 309 309 308 308 309 309 310 311 311 311 312 312 312 313 313 314 314 315 315 314 314 314 314 316 317 317 316 316 316 317 317 317 316
319 318 317 316 315 314 314 314 313 315 318 319 317 315 315 314 313 314 316 316 315 315 315 314 314 313 313 313 313 313 313 313 313 313 313 314 314 313 313 312 312 312 312 312 312 311 310 310 309 309 309 309 309 309 308 308 308 308 308 309 309 309 310 310 311 312 312 313 313 313 314 314 314 314 315 315 315 315 316 316 316 315 316 317 316 316
315 315 315 314 314 314 314 314 312 315 318 319 317 315 315 315 314 315 316 315 315 315 314 313 313 313 312 313 313 313 313 313 314 314 313 313 313 313 312 312 311 312 311 311 311 310 309 309 309 309 309 308 309 309 308 308 308 308 308 308 308 308 308 308 309 310 311 312 312 312 312 313 313 313 314 314 315 316 315 315 316 316 316 316 317 316
314 314 313 313 315 315 314 314 314 316 318 317 315 315 315 314 315 315 315 314 314 314 313 313 313 313 313 313 313 313 314 313 313 313 313 313 313 312 311 311 311 311 311 310 310 310 309 309 309 309 309 309 309 309 309 308 308 308 308 308 307 307 307 307 308 309 310 310 311 311 312 312 312 312 312 313 314 315 315 315 315 315 315 315 315 316
315 314 313 313 315 314 313 314 315 317 318 317 316 315 315 314 314 314 314 314 314 314 313 313 313 313 313 313 313 313 313 313 313 313 312 312 312 311 311 311 310 310 310 310 310 310 309 309 309 309 309 308 308 308 308 308 308 308 308 307 307 307 307 307 307 308 309 310 310 311 311 311 311 311 311 312 312 313 315 315 315 315 315 314 314 314
315 317 317 315 314 313 313 314 315 316 317 317 317 316 315 315 314 314 313 313 313 313 313 312 313 313 313 313 313 313 313 313 312 312 312 312 311 311 311 310 310 310 310 310 310 309 309 309 309 308 308 308 308 308 308 308 308 308 307 307 307 306 306 307 307 307 308 309 310 310 311 311 311 311 311 311 311 312 313 314 315 315 315 314 314 313
317 318 317 314 313 314 314 315 315 315 315 315 315 315 314 314 314 313 313 313 313 313 313 313 313 313 313 313 313 313 313 313 312 312 312 311 311 311 311 311 311 310 310 310 310 309 308 308 308 307 307 307 307 307 307 307 307 307 307 307 306 306 306 306 306 306 308 308 309 309 310 311 311 310 310 311 311 312 312 313 313 314 314 314 314 314
316 317 316 315 315 315 315 315 315 315 315 315 315 314 313 313 313 313 312 313 313 313 313 313 313 313 313 313 313 313 313 313 312 312 312 311 311 311 311 311 310 310 310 310 309 308 307 307 307 307 306 307 307 307 307 307 306 306 306 306 306 306 306 306 306 307 308 308 309 309 309 310 310 310 310 310 311 311 312 312 313 313 313 313 313 313
316 316 316 315 315 314 314 315 315 314 314 315 314 314 314 313 313 313 313 313 313 313 313 313 312 312 312 312 313 313 313 312 312 311 311 311 311 311 310 310 309 309 309 308 307 307 307 307 307 306 306 306 306 306 306 306 306 306 306 306 306 306 305 306 307 307 308 308 308 308 309 309 309 310 310 310 310 311 311 312 312 312 313 313 313 313
317 315 315 314 313 313 314 315 315 315 314 314 313 313 314 313 313 313 314 314 313 313 313 312 312 312 312 312 312 312 312 311 311 311 311 311 310 309 309 309 309 308 307 306 306 306 306 306 306 306 306 306 306 306 306 305 306 306 306 305 305 305 306 306 307 307 307 307 308 308 308 309 309 309 309 309 310 310 310 311 311 311 311 312 312 312
316 315 315 314 313 314 314 314 315 314 314 314 313 313 313 313 313 313 313 313 313 313 312 312 312 312 312 312 311 311 311 311 311 311 310 309 309 309 309 308 307 306 306 305 305 305 305 305 305 305 305 305 305 305 305 305 305 305 305 305 305 306 306 306 307 307 307 307 307 308 308 308 308 308 308 308 308 308 309 309 310 310 310 311 311 312
315 316 316 315 314 315 314 314 314 314 314 314 313 313 313 313 312 312 312 313 313 312 312 312 312 312 312 311 311 310 310 310 310 310 309 308 308 308 308 307 306 305 305 304 304 304 304 304 305 305 305 305 305 305 305 305 305 305 305 305 306 306 306 306 307 307 307 307 307 307 308 308 308 308 308 307 308 309 309 308 308 308 308 309 310 311
Wind_Speed
4 6 3 3 5 6 7 8 10 10 11 12 12 10 11 10 8 10 9 9 8 6 7 9 11 10 10 9 8 12 11 11 5 6 6 9 9 8 8 8 16 24 24 21 20 18 15 15 15 15 15 14 14 14 16 19 18 15 16 17 16 15 14 13 13 13 13 12 10 9 8 8 7 5 6 6 4 3 3 3 1 1 3 4 3 3
6 6 2 4 6 8 9 11 10 10 12 12 11 9 9 11 9 11 12 9 11 7 6 7 10 11 11 10 10 13 10 7 3 4 3 4 8 8 8 11 10 20 27 24 21 17 16 16 15 15 16 15 15 16 18 19 18 17 17 18 17 16 16 16 15 16 14 12 10 9 8 8 6 5 5 5 5 4 2 2 1 0 3 4 5 6
5 3 3 3 7 9 9 11 11 10 11 10 9 9 8 8 9 11 11 9 12 7 3 7 9 10 11 12 9 2 3 3 4 5 6 11 18 19 17 19 22 17 12 16 22 19 16 15 14 15 16 16 15 16 18 18 18 17 18 19 19 18 18 17 15 14 13 11 9 9 8 8 7 8 8 6 5 3 2 1 1 1 4 5 3 5
5 3 8 7 8 10 10 11 13 10 9 8 5 7 9 9 11 9 9 10 10 7 3 8 8 9 9 8 5 9 16 11 12 14 14 17 21 21 19 20 22 14 8 4 10 14 14 13 13 13 15 17 16 16 18 18 18 17 17 20 20 20 20 17 15 14 13 12 11 11 11 10 9 10 10 7 4 4 3 3 3 3 5 6 6 6
6 8 11 9 9 11 11 10 11 9 7 8 8 7 9 12 13 10 11 16 10 5 2 7 6 7 5 5 4 10 20 18 18 18 19 21 21 20 21 21 19 15 10 5 0 6 8 11 13 12 14 17 18 18 19 20 20 18 17 19 21 21 19 18 17 16 15 14 14 14 14 13 10 9 9 7 6 5 4 5 4 5 5 5 5 6
3 9 10 10 10 10 11 9 9 8 5 7 8 9 13 14 14 14 13 14 8 1 4 7 6 4 3 6 5 12 17 16 17 18 19 20 21 22 20 18 16 15 11 2 3 4 6 10 13 13 13 16 18 19 20 21 21 20 19 19 21 22 19 19 19 17 16 15 14 14 14 13 12 10 10 8 7 6 5 5 5 5 5 5 4 5
5 9 9 10 11 11 10 6 7 7 6 4 4 8 13 13 12 13 12 10 6 4 9 11 6 2 7 11 11 14 15 14 14 15 17 18 19 21 19 17 15 11 6 3 5 5 7 10 12 14 14 15 17 18 20 21 21 21 20 20 22 21 19 20 20 18 17 15 14 14 11 11 11 11 11 10 9 9 7 5 5 5 5 5 5 4
6 11 11 10 11 9 7 7 8 9 8 4 3 7 10 11 10 10 8 5 5 7 10 13 10 1 6 9 11 14 14 13 13 12 14 16 17 18 17 15 14 12 8 4 3 4 7 9 11 14 15 15 15 16 18 19 21 21 21 21 22 21 20 20 20 18 17 17 16 14 11 10 11 11 12 13 12 11 9 7 7 6 5 5 4 4
8 10 10 8 8 7 8 9 11 10 8 6 6 7 9 10 9 8 7 4 3 5 6 9 11 2 4 5 9 12 12 11 11 11 11 13 15 16 17 14 12 13 14 11 5 3 5 7 9 13 17 17 12 11 14 16 18 20 20 21 22 21 19 20 21 19 18 18 16 14 14 12 12 14 14 14 13 12 11 10 8 7 6 5 4 4
6 7 5 4 6 7 7 10 12 9 5 6 8 8 8 9 8 7 6 4 4 4 5 9 8 2 3 3 5 8 8 6 6 8 8 10 13 14 16 16 13 13 14 14 10 5 4 7 10 11 15 18 16 13 12 13 16 17 18 19 20 20 19 19 20 19 18 18 16 15 16 15 15 17 16 14 14 13 12 11 10 9 8 6 4 3
3 4 1 1 7 8 7 11 12 9 8 7 6 6 8 8 6 6 5 3 5 5 6 9 4 6 3 3 5 4 5 3 3 5 5 7 11 12 13 14 14 13 12 13 13 11 10 10 10 11 16 18 18 18 15 14 16 16 16 17 17 17 17 17 18 20 19 18 17 17 16 16 17 18 17 16 16 15 14 13 12 10 9 7 5 4
5 6 1 3 9 9 9 9 11 13 13 9 5 5 5 4 4 4 4 3 5 5 3 2 6 11 4 0 3 2 5 6 5 5 5 7 10 11 11 11 12 11 11 11 11 13 14 12 9 11 15 15 16 17 14 13 13 13 13 14 16 16 15 15 16 18 19 18 17 17 16 16 17 19 18 18 18 17 16 14 13 12 11 9 7 5
4 8 7 5 8 12 11 7 8 9 9 8 5 4 3 2 1 1 2 2 4 3 2 2 5 8 4 2 1 3 6 7 7 7 7 8 9 11 11 11 11 11 11 9 9 11 13 13 13 12 10 11 12 14 12 11 10 11 11 12 14 14 14 15 14 15 17 18 16 15 16 16 18 19 19 19 19 18 17 16 15 14 12 10 9 7
3 9 10 7 5 11 11 6 6 7 6 7 6 5 5 3 2 1 0 1 1 2 4 3 3 5 3 1 3 5 4 6 6 9 10 9 9 9 10 10 10 10 11 11 10 11 12 14 16 15 10 7 9 11 12 12 12 12 13 14 14 15 15 16 14 13 14 15 15 15 15 16 18 19 19 19 18 18 18 18 17 15 13 12 10 8
5 2 9 9 5 8 10 7 7 9 5 6 7 6 4 3 3 3 1 1 2 1 1 2 1 3 3 1 6 7 2 6 5 8 8 7 8 7 8 8 8 9 9 10 11 11 12 13 15 16 13 7 7 8 10 14 15 15 15 15 15 16 17 16 15 15 16 17 16 16 15 16 17 19 19 18 17 18 19 19 18 16 15 13 11 9
8 3 8 9 4 6 8 4 6 9 6 4 5 4 4 4 2 1 1 2 4 2 2 2 3 3 3 4 10 8 2 6 6 7 6 6 8 7 8 8 8 9 8 9 11 11 12 13 14 15 13 9 8 8 6 9 14 17 17 16 16 17 17 18 18 18 20 19 17 15 16 16 16 17 19 18 17 18 20 20 19 18 16 15 13 11
7 4 7 8 3 8 8 6 7 8 5 5 5 4 6 6 4 2 0 2 4 2 1 3 4 4 2 3 5 2 4 5 6 7 7 8 9 8 8 9 10 10 10 10 11 11 12 13 14 13 13 11 9 8 7 5 8 14 18 18 17 17 17 18 19 21 23 21 19 18 17 16 16 16 18 19 18 20 21 20 20 19 19 17 16 13
7 6 5 8 6 8 6 5 7 7 4 4 6 7 7 5 3 3 2 1 1 1 1 2 5 5 2 1 2 3 5 6 6 6 7 9 10 9 9 10 11 11 11 12 12 11 12 13 13 13 13 13 11 10 9 7 6 7 12 15 16 17 18 20 21 22 23 21 21 22 19 17 17 17 18 18 19 21 22 21 21 21 20 20 17 14
6 7 2 3 6 7 2 1 5 8 8 6 4 5 5 3 2 3 3 3 3 2 2 3 5 4 2 2 1 3 6 6 7 7 8 10 10 9 10 10 11 11 12 13 13 12 13 13 13 12 12 13 12 10 9 9 8 8 9 10 13 15 17 20 22 24 24 23 23 24 22 20 19 18 19 19 20 22 23 23 23 22 22 21 18 15
5 6 2 0 1 2 2 5 6 7 10 7 3 5 6 3 3 4 3 3 4 2 2 3 3 2 3 4 4 5 6 7 7 8 7 8 10 10 10 11 11 11 12 13 14 13 13 14 13 13 12 12 12 10 9 9 8 9 9 9 12 14 14 16 19 22 24 23 24 26 25 23 22 21 21 21 22 23 24 23 23 23 23 22 19 16
5 6 4 5 3 1 3 7 6 5 7 7 5 7 7 5 5 5 2 2 4 3 1 2 3 3 3 3 4 6 6 7 7 7 6 8 9 10 11 11 11 11 12 12 13 14 14 15 15 14 13 12 11 10 10 9 8 9 8 8 10 12 12 13 15 20 23 23 24 27 27 24 21 21 22 22 23 24 24 23 22 22 23 22 19 17
5 4 5 8 5 4 6 7 6 6 6 5 5 7 6 6 7 5 3 5 5 4 4 2 2 4 3 2 4 6 6 7 8 7 7 8 10 10 11 12 12 12 12 12 13 14 14 15 15 15 15 13 12 12 12 10 9 9 9 8 8 9 11 12 12 15 20 21 22 25 25 22 20 21 22 22 22 24 22 21 21 21 21 21 19 17
5 4 4 7 5 5 7 7 5 5 5 4 6 8 7 6 6 5 5 7 7 5 4 1 3 3 2 2 4 5 6 7 8 9 9 9 10 11 11 12 12 12 12 13 13 13 14 15 15 16 16 16 15 14 14 12 11 10 9 9 8 8 10 10 10 11 14 18 21 23 24 21 20 22 22 21 21 23 22 21 21 20 20 19 18 16
6 4 3 6 6 1 6 8 5 7 7 4 6 8 7 7 7 6 5 5 5 7 6 2 2 1 1 3 4 5 6 8 8 9 9 9 10 11 12 12 12 12 12 13 13 13 14 14 15 15 16 17 16 16 16 15 13 12 9 8 8 8 10 10 10 10 12 14 17 20 21 22 22 21 21 21 20 22 22 20 21 21 19 18 17 16
5 4 3 5 6 1 3 4 2 8 8 5 6 7 7 9 10 7 5 4 3 7 9 5 3 2 1 2 4 4 6 8 9 9 9 9 10 11 12 12 12 12 12 13 13 13 14 14 14 15 16 16 16 17 17 16 15 14 11 10 9 9 9 9 10 11 11 11 12 14 17 21 23 21 22 23 21 22 23 22 22 21 19 18 17 16
4 5 5 5 5 5 4 3 4 7 7 5 6 8 8 10 11 8 6 4 4 7 8 5 3 2 2 2 4 6 7 8 9 10 9 9 10 11 12 12 12 12 12 12 13 13 14 14 14 15 16 16 16 16 16 16 15 14 13 13 11 11 9 9 10 11 12 11 10 10 13 18 21 20 22 23 23 23 23 22 21 21 20 19 18 17
4 5 5 4 6 6 5 5 6 6 6 7 7 9 8 8 9 8 5 5 6 6 4 3 3 2 3 4 6 7 8 8 8 9 10 10 10 10 11 12 12 12 13 13 13 13 14 14 14 15 16 16 17 17 17 17 16 14 15 14 12 12 12 10 10 10 12 12 12 13 14 15 17 18 20 23 25 24 23 21 20 21 21 19 18 18
4 4 2 3 6 6 5 6 6 5 6 8 8 8 7 7 8 7 5 5 7 6 2 3 5 4 4 6 7 7 7 6 6 7 8 9 10 10 10 11 12 12 13 14 14 15 15 15 15 16 17 17 17 17 18 17 16 15 15 15 13 12 14 13 12 12 12 12 13 14 16 16 16 16 18 21 23 24 25 25 24 23 23 22 20 18
5 3 3 5 7 6 4 3 3 5 6 6 7 7 6 6 6 6 6 6 6 5 4 5 6 5 5 5 7 8 8 7 6 5 6 8 10 11 11 10 11 12 12 13 14 15 15 16 16 17 17 17 17 18 18 17 17 16 15 15 14 13 13 14 15 14 12 13 14 14 15 16 17 17 18 20 21 22 25 26 28 27 25 23 22 20
3 2 5 7 7 7 4 2 2 4 6 5 6 6 5 5 6 6 6 6 6 7 5 6 8 3 3 4 7 9 10 11 10 9 10 11 11 12 12 11 12 12 13 13 14 14 15 16 16 17 18 18 18 18 18 17 18 18 18 16 15 14 13 14 16 15 13 13 13 12 13 14 14 16 17 18 20 22 23 25 28 29 26 22 22 21
1 2 5 5 7 5 3 5 0 4 6 7 7 6 5 6 6 6 6 5 6 8 6 8 9 2 3 3 7 8 10 12 12 11 14 14 12 12 12 12 12 13 13 14 14 14 14 15 16 16 17 19 19 18 18 18 19 19 20 18 17 17 15 14 15 16 14 13 14 14 14 13 13 14 15 15 16 17 19 22 26 29 27 25 26 26
2 4 6 6 6 2 5 4 2 2 5 8 7 5 5 5 5 5 5 5 6 8 8 8 6 2 2 4 7 8 9 10 12 12 12 12 12 11 11 11 13 13 13 14 14 14 15 15 16 17 17 18 18 19 19 19 19 19 20 20 19 19 18 17 17 17 15 14 13 14 15 14 13 14 15 15 15 15 15 18 25 30 30 28 29 30
2 4 6 6 6 1 4 2 2 3 6 5 3 2 2 4 5 5 5 6 5 4 6 6 3 3 5 7 7 8 9 10 10 9 9 9 10 11 11 11 12 12 13 13 14 14 14 15 15 16 17 18 18 18 19 19 19 20 20 20 20 20 20 21 20 19 19 19 16 14 15 16 14 14 15 15 16 16 17 17 20 25 29 30 30 30
4 5 4 4 6 4 0 1 5 6 4 1 3 5 3 3 7 6 6 7 5 4 5 5 3 3 6 8 8 9 10 10 8 8 7 6 9 11 13 13 12 11 12 13 13 13 14 15 15 16 16 17 17 18 18 18 19 20 19 19 21 22 21 21 21 19 20 23 21 15 15 16 15 14 14 15 15 16 17 18 18 19 24 29 32 33
4 5 4 4 5 5 4 4 6 5 2 3 5 5 5 3 3 5 7 9 9 8 7 6 4 3 6 8 9 10 11 9 7 8 5 6 8 10 12 13 14 14 13 13 13 13 14 15 15 16 16 17 17 17 18 18 18 20 19 19 21 20 18 20 22 22 21 23 22 18 16 17 16 13 12 12 13 15 15 16 17 19 22 25 30 34
4 4 4 4 4 5 5 5 5 3 4 7 5 4 2 1 0 3 6 7 7 5 4 4 2 2 6 8 9 10 11 10 5 4 4 5 8 10 11 12 14 13 12 13 13 13 14 15 15 16 16 16 17 17 17 18 18 19 19 19 19 18 18 19 21 23 23 22 20 18 18 19 17 13 11 10 11 13 14 15 17 20 21 22 24 30
4 4 4 4 3 4 5 5 6 4 4 6 3 3 3 2 3 4 5 7 6 3 3 4 2 2 6 8 9 10 11 12 7 4 5 4 7 8 10 12 13 13 12 13 13 13 14 14 14 15 15 16 17 17 18 18 18 18 18 19 19 19 19 19 20 23 24 21 20 19 18 18 17 13 11 10 11 11 11 12 14 15 16 18 20 26
2 3 4 4 3 4 5 5 6 6 1 2 3 5 5 3 3 3 4 7 4 3 3 2 3 3 7 8 10 11 10 9 4 5 4 5 7 7 8 10 12 12 12 13 12 13 14 14 15 15 15 15 16 16 18 19 19 18 19 19 19 19 19 19 19 21 22 21 21 21 20 19 18 18 16 14 12 11 11 10 10 10 11 13 17 22
3 3 3 4 4 5 5 5 6 5 3 4 7 6 4 3 2 3 4 3 3 5 4 2 5 7 9 10 13 12 8 6 3 5 5 7 9 9 10 10 11 11 12 12 11 11 13 13 14 14 14 15 16 16 17 18 18 19 19 19 19 19 20 21 21 21 21 21 21 21 22 22 21 22 22 17 13 11 11 11 10 10 10 11 13 18
5 4 3 4 5 5 4 5 5 3 4 6 7 6 4 4 2 5 3 1 5 7 7 6 8 9 9 10 10 8 6 5 6 7 8 9 9 9 10 11 12 12 12 11 11 11 12 12 13 14 14 15 16 17 17 16 17 18 19 19 20 20 21 22 22 22 21 21 20 20 22 23 21 20 20 18 14 12 12 12 11 11 12 12 12 15
5 4 4 5 5 5 5 5 4 1 4 5 6 6 4 2 1 3 2 2 4 8 7 7 9 8 8 9 8 7 6 7 7 9 10 9 9 10 10 11 11 11 11 11 11 12 13 14 15 16 16 17 18 20 20 19 18 19 19 18 19 21 23 23 23 22 22 22 20 20 20 21 20 19 19 19 17 14 13 14 14 13 12 13 14 14
3 2 4 5 6 5 4 5 5 1 3 3 4 5 2 1 1 1 0 1 3 6 8 7 8 9 8 6 7 7 8 8 8 8 9 9 10 11 11 10 10 10 11 12 12 13 14 16 17 18 19 19 19 20 22 21 21 22 21 20 21 23 23 24 24 23 22 21 21 21 20 20 20 20 20 20 19 15 13 15 17 15 12 13 15 16
1 3 5 4 3 4 4 5 5 2 1 2 3 3 2 1 5 6 5 6 5 6 9 9 7 7 7 5 5 7 9 9 9 9 9 9 10 11 10 10 10 11 12 13 14 15 15 16 17 18 18 19 19 19 20 20 21 22 22 23 23 23 23 24 24 24 23 22 22 22 22 21 21 21 20 20 20 19 17 16 17 17 15 14 16 18
1 1 4 3 3 4 5 4 3 2 3 6 4 2 3 4 7 8 9 10 8 7 9 11 8 7 7 6 7 9 10 10 10 10 10 10 10 11 10 10 11 12 13 14 15 16 16 16 17 18 19 19 19 19 20 20 21 22 22 23 23 23 24 24 25 24 24 23 22 22 23 22 21 22 21 20 20 21 22 18 16 17 18 17 15 16
1 3 2 3 2 3 6 5 5 4 1 7 7 4 5 6 6 5 6 10 10 8 8 9 8 7 6 7 8 10 10 11 11 11 11 11 11 11 10 11 12 12 13 15 15 16 16 17 17 19 20 20 19 20 20 20 20 22 23 23 24 24 24 24 24 25 24 23 22 23 23 22 22 22 22 21 21 22 22 22 19 18 17 17 16 15
5 6 2 2 2 4 6 5 4 4 2 3 4 5 6 8 7 5 6 10 11 8 7 8 8 8 8 9 9 9 9 10 11 11 11 11 11 11 11 12 13 13 14 15 16 16 17 18 19 20 21 21 20 20 20 20 20 21 22 22 23 23 24 24 25 25 24 23 23 23 22 22 22 22 22 22 22 21 20 20 21 20 18 17 18 17
6 8 4 3 2 3 3 2 3 4 2 2 5 7 7 7 7 7 7 8 6 5 4 6 8 9 9 9 9 8 8 9 10 11 11 11 12 12 13 14 14 15 15 15 16 18 19 20 21 22 22 20 20 20 21 21 20 21 21 22 22 23 24 25 25 24 23 23 23 23 23 22 22 22 23 21 21 21 20 19 19 20 19 19 18 19
4 5 2 4 3 5 6 6 8 10 7 4 3 4 5 7 7 6 4 3 3 3 4 7 9 9 8 7 8 8 9 9 11 11 11 12 13 14 14 15 15 15 14 15 18 20 20 20 20 21 20 20 20 20 21 21 21 20 21 22 22 23 24 25 24 23 23 23 23 23 23 22 21 21 21 20 20 20 21 21 21 21 21 22 20 19
5 2 5 4 5 6 6 6 8 7 4 2 5 3 5 8 6 3 3 3 4 5 6 8 9 8 7 7 8 8 10 11 11 11 12 13 14 14 14 14 14 14 16 19 20 20 19 20 20 20 20 20 20 21 21 21 21 21 21 22 22 23 24 24 24 24 23 23 23 22 22 23 23 22 22 21 21 21 20 20 20 22 23 24 23 22
4 5 5 5 5 4 3 6 7 5 4 5 7 6 5 8 7 4 2 3 6 7 8 8 8 7 7 7 7 9 11 11 11 11 13 14 14 15 15 14 14 16 19 20 20 19 20 20 19 20 20 20 20 21 21 21 22 22 21 21 21 22 23 23 23 23 23 23 23 22 22 23 24 24 24 25 25 23 21 20 18 18 21 24 25 25
5 4 4 4 5 7 8 8 6 3 5 7 8 7 6 7 9 9 6 5 7 9 8 7 8 8 7 7 8 9 10 11 11 12 14 14 15 15 14 14 16 19 19 19 19 21 20 19 19 19 20 20 20 20 21 21 21 21 20 20 20 20 21 22 22 22 23 24 24 24 23 23 24 24 24 25 24 22 22 24 24 22 22 24 25 24
Wind_Direction
283 274 276 295 288 319 341 336 328 324 317 306 299 288 283 282 266 268 258 182 182 241 226 233 248 239 241 240 236 238 199 138 161 253 263 255 250 235 220 180 164 158 147 147 149 151 164 168 170 182 183 176 174 167 157 155 156 159 163 166 171 169 160 155 154 154 155 152 147 142 134 132 136 138 134 131 140 148 134 125 92 51 45 31 19 10
300 279 296 268 291 342 331 317 314 306 310 302 292 286 276 275 265 261 259 187 166 218 239 243 255 248 245 243 232 228 202 139 150 245 262 307 342 3 18 26 73 131 140 145 150 154 163 168 172 181 184 182 179 174 166 164 164 165 171 174 172 164 159 160 158 155 153 150 148 143 135 141 143 133 143 163 185 207 202 190 229 134 85 58 21 19
280 277 21 331 326 338 314 311 311 305 311 304 301 302 283 287 296 276 261 214 182 183 238 252 256 250 241 241 238 208 89 109 91 50 34 28 25 21 22 44 70 92 113 141 153 156 158 163 168 176 186 186 185 182 171 168 171 171 175 176 169 164 163 163 161 154 152 154 151 148 147 155 161 159 169 190 199 197 200 181 185 151 114 112 76 43
297 7 36 7 333 321 312 320 320 315 310 307 329 319 301 327 335 308 302 291 242 190 220 257 265 262 245 245 240 73 56 46 55 46 31 30 30 26 30 62 89 86 31 57 148 147 149 161 167 182 195 190 190 189 175 171 177 178 179 175 167 167 167 165 166 160 160 167 164 164 167 168 179 186 187 194 180 156 158 148 135 128 117 125 133 118
304 20 25 345 326 327 324 329 333 331 322 327 357 348 312 326 335 320 325 322 287 188 228 270 276 272 254 259 243 84 63 50 50 41 31 26 25 28 32 46 69 80 55 7 175 135 154 174 179 191 198 195 195 192 183 178 178 183 185 178 171 171 171 170 172 169 172 178 175 178 178 174 187 193 183 179 167 156 151 138 130 126 119 116 122 125
322 32 20 338 333 337 325 333 0 358 332 331 347 340 317 316 328 326 334 337 314 263 322 293 256 254 353 3 22 71 66 56 51 42 33 24 23 26 24 27 39 58 62 23 233 183 189 195 196 199 198 200 199 194 191 187 183 186 189 186 179 175 176 176 174 175 181 184 184 188 187 184 190 184 173 172 163 161 159 145 134 123 122 118 113 118
344 7 11 354 339 331 328 346 12 348 310 314 317 309 310 309 310 316 335 346 331 320 318 307 274 189 36 16 30 60 65 59 51 46 39 31 29 25 17 19 27 42 55 264 230 197 212 222 219 210 204 209 209 200 194 191 189 189 192 194 188 182 182 180 178 180 183 188 193 194 192 191 187 177 175 178 172 173 175 161 146 132 123 116 107 103
6 353 358 358 339 331 345 357 353 328 303 314 291 266 284 295 294 300 312 319 330 325 309 308 300 229 67 23 27 51 56 51 47 47 43 36 36 31 24 18 16 26 25 330 260 213 228 236 235 228 220 216 214 206 196 195 193 191 197 200 193 189 189 185 184 185 184 192 197 189 186 188 183 184 190 190 187 185 180 172 163 151 138 123 109 93
52 8 354 359 350 351 0 346 332 317 304 325 320 283 275 277 280 292 292 274 298 309 291 302 309 309 93 29 26 47 46 36 41 47 41 37 36 33 30 24 20 28 29 25 8 268 236 233 254 260 242 229 229 216 197 200 200 195 199 201 195 193 195 191 190 190 189 196 199 187 184 187 187 201 209 202 194 190 183 179 176 167 157 145 126 100
56 29 2 8 2 5 1 328 312 303 309 327 318 313 307 286 273 269 267 258 262 272 263 275 296 3 101 29 32 57 52 31 36 48 41 38 36 31 30 29 30 33 32 34 26 342 289 274 288 293 263 243 239 228 208 211 214 205 203 204 197 193 196 197 196 195 193 197 200 193 190 188 192 209 215 205 196 193 188 186 185 178 171 164 150 129
137 125 203 78 25 5 341 322 327 347 355 339 324 338 340 324 309 280 256 245 248 248 248 263 312 67 93 9 20 46 62 47 40 49 37 31 30 25 29 30 32 38 42 43 34 14 352 316 297 297 283 258 233 225 221 221 220 216 213 210 202 195 197 201 203 200 196 199 201 200 197 191 200 214 212 203 200 196 194 193 190 185 180 178 170 155
144 144 232 73 55 13 336 333 357 11 3 350 350 356 350 350 341 288 248 231 241 239 235 246 67 74 90 22 22 52 72 56 48 53 36 32 30 20 25 28 24 32 45 52 46 26 11 353 327 304 289 268 233 220 225 226 223 222 221 218 212 204 201 206 211 206 201 204 205 204 202 196 206 217 211 206 205 200 200 199 193 192 190 189 184 175
103 88 25 22 52 21 358 351 3 10 5 356 351 353 359 17 36 236 226 231 240 257 2 63 92 77 89 158 16 28 58 51 50 56 38 34 38 25 24 25 16 16 19 27 41 34 21 10 355 339 308 277 240 221 231 244 243 238 232 230 227 220 212 213 217 215 211 212 212 212 208 204 212 216 209 209 210 203 204 203 199 200 198 195 195 192
66 83 42 5 29 21 10 11 356 353 6 1 349 0 10 2 34 56 350 339 268 269 343 359 91 97 127 144 336 338 33 44 50 60 44 29 35 32 25 23 19 18 7 359 11 23 24 17 5 359 346 298 258 241 245 250 250 247 240 234 235 232 224 221 223 226 225 222 220 223 219 213 217 215 207 209 211 206 205 207 205 205 204 201 202 202
315 67 39 15 22 18 15 28 356 336 351 12 351 348 6 14 29 35 26 332 3 79 11 330 59 128 156 203 267 267 14 35 34 58 52 28 30 32 26 23 21 23 15 2 360 7 20 23 15 10 5 341 308 288 259 245 244 246 243 237 237 234 225 222 224 228 233 231 226 229 226 221 224 220 209 206 209 208 208 209 207 205 207 204 203 207
319 347 36 15 14 32 15 9 2 348 347 11 353 347 13 18 3 327 196 245 299 350 86 73 77 106 151 204 238 246 37 39 26 36 36 26 27 25 22 18 12 14 14 6 359 360 12 20 21 16 7 359 347 328 297 261 247 241 241 243 243 239 229 223 220 220 226 231 230 231 230 228 229 228 216 205 205 211 211 212 208 204 206 206 206 209
336 343 26 1 359 61 24 341 27 30 349 340 354 0 355 343 328 314 194 211 259 287 86 108 111 119 157 206 247 290 44 37 26 26 25 29 23 15 14 6 6 11 3 358 0 358 0 8 15 13 2 360 356 338 329 308 262 245 243 246 247 244 237 231 225 222 225 229 233 232 229 230 234 235 225 210 207 213 213 211 206 202 205 208 208 209
339 309 8 3 357 49 34 336 37 48 12 5 3 347 335 330 337 338 342 274 261 88 95 115 120 134 154 198 300 15 37 21 14 12 24 32 19 10 13 5 7 12 2 1 6 3 359 360 3 5 1 356 353 349 342 329 315 280 255 250 250 247 242 237 233 232 233 232 233 231 226 224 228 232 229 218 214 216 212 208 206 203 206 209 209 208
346 312 359 27 360 15 351 315 27 12 9 33 34 352 349 360 346 344 1 342 340 58 93 80 85 94 92 85 25 26 25 16 8 1 15 27 17 12 15 9 7 10 7 7 9 9 5 1 357 357 359 353 351 356 346 332 332 322 298 280 268 259 252 246 240 239 239 235 232 233 228 220 217 225 228 222 220 219 213 209 206 205 207 210 211 207
339 304 315 62 15 15 347 26 26 351 356 13 32 26 21 13 327 326 341 321 328 17 113 124 110 80 60 52 37 28 16 16 15 5 12 19 13 13 13 10 8 7 9 7 6 8 5 3 360 355 357 357 355 352 337 331 333 318 312 308 295 286 276 265 256 247 242 237 231 230 229 223 219 222 223 221 222 220 215 211 207 207 208 210 212 208
331 305 330 316 313 48 38 36 24 349 357 358 8 23 14 0 346 334 327 335 342 351 6 167 165 114 67 20 22 29 18 25 24 9 16 18 14 16 12 11 10 7 9 7 4 6 4 3 3 360 0 0 357 349 337 334 330 311 302 295 293 298 297 288 275 255 244 240 233 226 226 225 222 221 219 219 222 221 217 212 207 208 211 212 213 211
349 320 325 312 325 48 67 60 33 4 347 333 12 25 1 7 9 344 342 6 356 345 353 9 122 96 68 4 19 29 23 30 27 18 23 21 18 21 16 13 12 8 7 7 6 6 4 3 4 3 4 4 2 357 353 348 335 321 313 296 287 298 302 297 292 269 249 244 236 225 223 221 216 218 218 218 222 223 217 212 210 210 212 212 212 213
2 304 299 306 321 42 79 92 64 13 316 307 37 28 354 16 24 348 340 347 342 346 355 45 122 92 47 25 25 28 34 34 27 24 25 20 19 21 19 17 16 12 7 5 7 7 4 4 5 4 5 7 8 5 2 358 346 336 326 312 304 311 307 294 292 286 265 252 240 227 223 219 214 216 215 214 223 226 218 212 214 214 213 212 211 215
354 301 304 314 307 41 122 138 98 21 340 340 45 26 2 15 11 345 325 313 331 359 350 334 107 58 352 61 44 31 44 41 27 26 28 22 16 13 14 16 15 14 10 8 9 8 6 4 5 6 4 5 6 5 4 2 356 353 342 324 314 309 302 290 284 286 280 270 256 244 235 223 218 217 213 212 222 228 222 216 217 217 217 217 212 212
335 312 331 322 305 305 150 163 73 16 356 357 17 7 7 9 358 345 324 305 345 15 1 355 55 80 163 87 60 33 41 43 25 16 21 20 12 9 9 8 8 10 10 11 11 8 7 6 4 5 3 1 1 359 0 1 359 360 355 342 328 312 297 283 279 279 278 277 272 266 249 228 222 222 215 212 218 224 221 216 217 219 219 219 215 212
309 315 328 337 337 352 10 341 352 2 346 333 358 3 3 3 359 347 335 347 360 2 11 18 37 91 113 49 39 26 27 35 21 8 13 13 6 4 3 359 0 3 4 7 8 5 4 4 2 3 1 0 359 355 355 356 354 354 354 351 342 334 324 297 280 275 270 268 269 268 253 234 228 226 221 215 216 221 221 216 217 218 217 219 219 217
304 308 323 354 335 331 352 346 354 3 327 318 352 1 355 357 359 348 345 11 354 340 26 48 335 359 65 28 16 17 19 21 10 5 6 2 359 0 360 356 354 356 358 360 2 3 2 1 359 358 357 357 356 352 352 353 350 347 350 352 347 340 336 322 301 288 276 268 264 260 257 251 239 231 228 222 217 221 226 225 222 220 219 220 223 223
288 305 9 2 312 313 338 337 344 343 314 325 345 341 340 347 352 353 352 2 349 330 26 43 345 348 28 16 4 9 17 9 360 8 5 356 358 356 353 355 353 353 355 355 357 0 1 360 358 355 353 352 350 348 348 348 345 345 347 346 344 340 337 335 328 315 297 283 275 268 267 267 257 243 236 229 223 225 228 228 228 228 224 222 223 226
305 336 20 335 311 315 308 296 350 335 312 322 320 309 328 335 333 340 336 343 347 324 328 350 340 351 16 6 357 357 355 349 348 3 2 358 1 355 349 355 357 355 357 357 359 360 359 360 359 355 352 349 346 345 345 342 342 345 345 338 335 336 334 332 333 328 312 294 284 278 273 270 265 257 248 240 237 239 237 231 230 232 232 228 229 230
329 341 356 330 304 289 253 184 36 322 294 296 296 298 313 314 318 324 321 336 328 299 303 323 317 347 44 359 348 350 347 342 340 355 14 15 5 353 349 356 360 358 359 1 2 1 1 1 359 356 353 350 348 345 343 340 338 339 339 335 335 339 333 326 326 327 323 308 294 283 274 269 265 260 253 247 245 247 247 239 231 232 234 234 237 239
317 314 342 311 282 275 159 138 155 293 294 294 290 298 311 311 313 311 317 341 321 304 323 325 312 343 86 349 336 343 343 338 333 354 21 21 3 352 351 359 4 1 359 1 1 1 3 2 359 358 354 352 350 347 344 342 338 336 337 334 334 334 327 319 317 317 317 311 302 296 286 274 268 266 261 258 253 247 247 242 233 232 234 234 237 242
276 305 318 295 291 318 142 167 213 289 295 287 280 283 281 285 299 307 319 325 310 311 322 314 308 355 61 334 330 334 337 334 331 348 11 9 356 349 348 358 7 3 360 1 360 360 3 3 1 359 355 353 351 348 346 344 339 339 340 337 334 331 324 319 314 312 313 307 296 295 296 288 276 268 263 262 262 256 249 242 231 228 230 233 237 242
306 311 313 308 319 336 161 193 318 294 280 282 315 326 238 257 290 284 278 285 287 299 299 294 314 349 332 322 323 330 333 330 336 358 18 7 346 336 341 357 5 1 358 359 359 0 2 2 360 358 356 354 352 349 347 345 342 343 341 336 333 330 326 323 318 311 314 317 309 295 295 298 290 279 270 265 265 264 258 252 241 232 230 232 237 243
325 315 308 309 312 307 83 334 297 288 296 14 58 38 36 347 318 305 299 301 295 271 266 278 307 326 318 315 320 328 327 331 1 38 42 5 338 334 344 352 357 5 6 359 356 357 358 357 356 354 354 353 352 350 349 347 346 345 341 335 332 331 329 327 324 315 313 322 325 312 298 297 296 292 287 278 272 267 259 255 258 254 244 236 237 243
326 308 309 312 298 296 312 298 283 297 355 119 107 69 43 17 337 311 303 294 284 273 268 281 309 315 302 305 314 319 318 331 23 59 47 355 341 340 340 343 355 8 6 352 350 352 350 350 350 349 351 350 349 350 349 348 347 345 343 340 338 339 336 329 327 325 322 324 328 326 320 315 306 300 302 296 282 271 261 255 257 261 259 250 241 241
317 303 306 301 288 290 297 291 295 312 128 134 118 101 114 132 46 306 293 287 292 296 280 273 273 274 286 298 311 315 315 321 345 73 69 357 340 339 333 334 345 352 348 344 346 346 344 344 344 343 345 346 345 347 347 346 345 344 343 343 341 340 339 332 329 333 333 328 326 330 336 336 325 309 303 304 295 279 267 261 259 260 263 261 248 239
297 303 306 305 309 309 298 292 299 294 161 151 138 110 107 50 3 337 301 289 294 320 346 331 320 260 286 299 311 315 318 317 320 91 86 348 329 334 328 328 334 334 334 336 337 337 339 340 340 339 340 343 344 345 345 343 342 341 341 342 341 340 339 336 334 338 340 336 330 331 333 332 329 320 303 293 296 294 280 266 262 262 263 262 251 240
269 283 303 315 315 301 300 302 302 305 299 156 140 101 77 41 7 339 300 285 274 130 95 335 299 296 305 321 342 343 331 315 321 90 73 332 324 329 323 326 330 327 325 328 330 335 336 336 338 338 339 344 346 346 346 344 341 341 339 338 338 337 337 337 335 336 337 336 333 332 328 324 322 318 309 294 287 295 297 283 271 268 266 261 253 245
218 241 272 286 280 280 293 298 297 311 8 95 122 115 89 64 28 315 289 303 8 69 79 346 326 341 338 346 359 355 330 305 340 34 11 331 325 329 329 332 331 326 326 329 331 334 334 336 341 339 337 341 342 341 343 343 343 343 341 338 337 336 334 335 334 332 332 331 330 328 326 325 320 314 311 304 288 281 290 292 284 278 271 263 256 252
211 213 234 257 275 280 276 282 298 335 61 97 115 111 85 74 20 292 269 41 1 0 8 351 345 354 347 337 340 336 321 324 341 346 337 324 319 324 328 329 329 329 332 334 333 334 332 330 331 331 331 333 333 332 333 336 340 341 339 337 337 336 333 331 330 328 327 327 328 328 326 326 327 324 320 315 301 282 280 290 290 280 271 263 256 252
228 219 228 249 274 283 280 288 301 36 89 101 108 96 78 91 239 288 317 52 358 338 338 335 331 330 328 329 328 325 332 332 319 316 321 319 320 325 326 328 330 332 334 334 332 330 327 322 323 328 330 331 333 333 332 332 335 335 333 334 337 336 333 330 327 325 324 323 323 324 324 325 329 329 325 322 313 292 279 287 290 280 270 267 262 256
287 271 250 248 259 265 277 293 294 346 86 101 113 99 72 302 324 13 326 274 302 309 314 324 325 314 315 334 332 317 317 316 309 312 318 320 324 326 325 330 334 334 334 333 328 327 326 324 324 328 329 326 326 328 328 328 328 328 329 332 333 331 330 329 326 323 321 319 318 318 320 322 325 325 323 322 316 300 284 283 283 279 272 264 261 259
349 312 289 288 309 307 302 304 301 308 86 141 151 133 145 313 359 3 328 308 324 330 318 312 315 325 338 347 327 311 311 314 317 319 319 322 326 324 324 329 331 330 330 328 327 330 331 326 324 325 324 321 319 319 320 319 318 319 322 324 325 325 327 328 326 323 319 316 315 315 315 316 318 319 320 320 315 308 301 288 276 273 275 267 257 253
174 244 288 320 7 342 313 323 348 25 143 169 200 282 322 344 350 344 326 322 330 333 315 305 316 352 358 332 309 307 310 316 322 322 319 320 319 316 318 323 323 325 328 327 328 330 329 327 324 321 319 318 316 316 317 316 313 313 315 318 321 324 326 325 324 322 319 316 316 315 313 312 313 315 316 317 315 311 308 300 284 273 272 271 264 253
129 87 342 309 333 320 299 306 338 348 219 198 216 263 301 304 304 306 306 305 305 309 310 307 318 337 327 306 304 305 308 319 323 317 314 314 313 313 319 323 326 330 331 328 327 327 326 324 321 319 317 317 317 316 317 316 312 311 312 315 318 322 324 325 324 323 319 317 316 316 313 309 310 312 313 313 312 310 307 305 299 286 274 269 268 260
150 130 142 267 317 326 301 283 292 308 280 236 255 280 291 288 288 300 305 297 298 309 319 316 315 313 306 304 305 301 306 315 312 307 310 313 313 318 324 327 331 333 329 326 325 326 324 320 318 317 316 316 317 319 318 316 313 312 312 315 317 318 320 322 322 320 318 317 317 318 314 309 308 310 311 310 310 310 310 307 302 296 286 272 261 256
147 140 165 257 295 315 298 261 287 289 255 232 270 281 290 293 286 282 287 294 307 324 323 309 305 304 304 303 301 302 309 311 308 311 317 316 317 323 327 330 331 330 327 326 326 324 322 319 318 319 319 320 321 320 319 317 315 314 315 316 318 318 319 321 322 321 319 318 318 318 315 311 309 309 309 309 308 309 311 308 301 298 296 290 276 261
109 133 238 266 268 286 283 285 298 290 262 237 260 270 284 299 299 294 304 338 1 348 320 309 305 305 308 309 309 313 314 313 313 316 318 318 322 327 329 331 331 330 330 330 327 324 322 320 320 322 324 324 323 321 320 320 319 319 319 318 318 319 319 320 322 323 321 320 319 318 316 314 313 311 311 312 312 312 312 308 304 303 303 302 296 278
116 182 275 279 268 278 288 315 327 305 269 344 26 7 287 294 312 351 21 357 328 308 304 307 307 309 311 312 314 314 312 313 316 318 320 324 327 328 330 331 333 334 334 331 327 325 324 323 323 324 323 322 322 323 323 322 321 322 322 319 318 319 319 319 321 322 322 321 320 319 317 315 312 310 309 309 309 313 315 312 311 314 311 304 299 291
174 239 271 266 255 266 325 7 2 327 291 336 4 358 314 303 308 314 318 314 306 299 299 304 309 310 307 302 305 309 310 313 316 319 323 325 326 329 331 333 336 336 332 329 327 326 325 324 324 324 324 324 325 324 324 323 322 323 323 321 319 318 319 321 322 321 321 321 319 318 317 315 313 312 311 308 306 307 308 304 302 308 313 308 298 291
274 301 308 287 289 312 331 345 354 335 315 328 338 338 330 312 299 295 294 293 290 289 295 305 307 302 296 293 300 307 310 314 318 321 321 322 326 331 333 334 335 332 328 327 327 325 323 323 325 327 328 328 328 327 327 327 325 326 328 326 322 321 321 323 323 321 319 319 318 319 318 317 316 316 314 312 310 307 303 301 298 296 299 301 299 293